Marion, SC

6:40 PM EST on November 21, 2019 (GMT -0500)
Marion County

Weather History for KMAO - October, 2019

Change the Weather History Date:

Monday, October 21, 2019

  Actual Average (WUND) Record (WUND)
Temperature  
Mean Temperature 64 °F -  
Max Temperature 77 °F - - (-1)
Min Temperature 51 °F - - (-1)
Degree Days  
Heating Degree Days 1    
Growing Degree Days 14 (Base 50)    
Moisture  
Dew Point 58 °F    
Average Humidity 84    
Maximum Humidity 100    
Minimum Humidity 57    
Precipitation  
Precipitation 0.00 in - - ()
Sea Level Pressure  
Sea Level Pressure 30.03 in    
Wind  
Wind Speed 2 mph ()    
Max Wind Speed 8 mph    
Max Gust Speed -    
Visibility 9.5 miles    
Events      
Averages and records for this station are not official NWS values.
T = Trace of Precipitation, MM = Missing Value Source: Averaged Metar Reports

Daily Weather History Graph

Daily Weather History Graph

Search for Another Location

Airport or City:

Astronomy

Oct. 21, 2019 Rise Set
Actual Time 7:27 AM EDT 6:36 PM EDT
Civil Twilight 7:01 AM EDT 7:01 PM EDT
Nautical Twilight 6:32 AM EDT 7:30 PM EDT
Astronomical Twilight 6:03 AM EDT 7:59 PM EDT
Moon No Moon Rise 2:34 PM EDT
Length of Visible Light 11h 59m
Length of Day
11h 08m
Waning Gibbous, 48% of the Moon is Illuminated
Oct 21
Waning Gibbous
Oct 27
New
Nov 4
First Quarter
Nov 12
Full
Nov 19
Last Quarter

Hourly Weather History & Observations

Time (EDT) Temp. Dew Point Humidity Pressure Visibility Wind Dir Wind Speed Gust Speed Precip Events Conditions
12:15 AM 57.2 °F 55.4 °F 94% 29.97 in 10.0 mi Calm Calm - N/A   Clear
12:35 AM 57.2 °F 55.4 °F 94% 29.98 in 10.0 mi Calm Calm - N/A   Clear
12:55 AM 57.2 °F 55.4 °F 94% 29.98 in 10.0 mi Calm Calm - N/A   Clear
1:15 AM 55.4 °F 55.4 °F 100% 29.99 in 10.0 mi Calm Calm - N/A   Clear
1:35 AM 55.4 °F 55.4 °F 100% 29.99 in 10.0 mi Calm Calm - N/A   Clear
1:55 AM 55.4 °F 55.4 °F 100% 29.99 in 10.0 mi Calm Calm - N/A   Clear
2:15 AM 55.4 °F 55.4 °F 100% 29.99 in 10.0 mi Calm Calm - N/A   Clear
2:35 AM 55.4 °F 53.6 °F 94% 30.00 in 10.0 mi Calm Calm - N/A   Clear
2:55 AM 55.4 °F 53.6 °F 94% 30.00 in 10.0 mi Calm Calm - N/A   Clear
3:15 AM 53.6 °F 53.6 °F 100% 30.00 in 10.0 mi Calm Calm - N/A   Clear
3:35 AM 53.6 °F 53.6 °F 100% 30.00 in 10.0 mi Calm Calm - N/A   Clear
3:55 AM 53.6 °F 53.6 °F 100% 30.01 in 10.0 mi West 3.5 mph - N/A   Clear
4:15 AM 53.6 °F 53.6 °F 100% 30.01 in 10.0 mi Calm Calm - N/A   Clear
4:35 AM 53.6 °F 53.6 °F 100% 30.01 in 7.0 mi Calm Calm - N/A   Clear
4:55 AM 53.6 °F 53.6 °F 100% 30.02 in 3.0 mi Calm Calm - N/A   Mostly Cloudy
5:15 AM 53.6 °F 53.6 °F 100% 30.03 in 10.0 mi Calm Calm - N/A   Overcast
5:35 AM 53.6 °F 53.6 °F 100% 30.03 in 10.0 mi Calm Calm - N/A   Overcast
5:55 AM 53.6 °F 53.6 °F 100% 30.03 in 10.0 mi Calm Calm - N/A   Overcast
6:15 AM 53.6 °F 53.6 °F 100% 30.03 in 10.0 mi Calm Calm - N/A   Scattered Clouds
6:35 AM 53.6 °F 53.6 °F 100% 30.03 in 2.0 mi Calm Calm - N/A   Clear
6:55 AM 53.6 °F 51.8 °F 94% 30.03 in 7.0 mi Calm Calm - N/A   Clear
7:15 AM 53.6 °F 53.6 °F 100% 30.04 in 1.2 mi Calm Calm - N/A   Mist
7:35 AM 51.8 °F 51.8 °F 100% 30.03 in 5.0 mi Calm Calm - N/A   Scattered Clouds
7:55 AM 51.8 °F 51.8 °F 100% 30.04 in 10.0 mi NNE 3.5 mph - N/A   Clear
8:15 AM 55.4 °F 55.4 °F 100% 30.05 in 10.0 mi Calm Calm - N/A   Clear
8:35 AM 57.2 °F 55.4 °F 94% 30.06 in 10.0 mi NE 4.6 mph - N/A   Clear
8:55 AM 59.0 °F 59.0 °F 100% 30.06 in 10.0 mi NE 6.9 mph - N/A   Clear
9:15 AM 60.8 °F 57.2 °F 88% 30.07 in 10.0 mi ENE 8.1 mph - N/A   Clear
9:35 AM 62.6 °F 57.2 °F 82% 30.07 in 10.0 mi ENE 8.1 mph - N/A   Clear
10:15 AM 64.4 °F 59.0 °F 83% 30.07 in 10.0 mi East 8.1 mph - N/A   Clear
10:35 AM 66.2 °F 59.0 °F 78% 30.07 in 10.0 mi ENE 6.9 mph - N/A   Clear
10:55 AM 68.0 °F 59.0 °F 73% 30.07 in 10.0 mi ENE 5.8 mph - N/A   Clear
11:15 AM 68.0 °F 59.0 °F 73% 30.08 in 10.0 mi NE 4.6 mph - N/A   Clear
11:35 AM 69.8 °F 59.0 °F 68% 30.08 in 10.0 mi East 5.8 mph - N/A   Clear
11:55 AM 69.8 °F 59.0 °F 68% 30.08 in 10.0 mi NE 3.5 mph - N/A   Clear
12:15 PM 71.6 °F 59.0 °F 64% 30.08 in 10.0 mi NE 3.5 mph - N/A   Clear
12:35 PM 71.6 °F 60.8 °F 69% 30.08 in 10.0 mi NE 4.6 mph - N/A   Clear
12:55 PM 71.6 °F 60.8 °F 69% 30.07 in 10.0 mi Calm Calm - N/A   Clear
1:15 PM 73.4 °F 60.8 °F 65% 30.07 in 10.0 mi Calm Calm - N/A   Clear
1:35 PM 73.4 °F 59.0 °F 61% 30.05 in 10.0 mi Calm Calm - N/A   Clear
1:55 PM 73.4 °F 59.0 °F 61% 30.05 in 10.0 mi NNE 4.6 mph - N/A   Clear
2:15 PM 75.2 °F 60.8 °F 61% 30.04 in 10.0 mi SE 4.6 mph - N/A   Scattered Clouds
2:35 PM 75.2 °F 60.8 °F 61% 30.03 in 10.0 mi Calm Calm - N/A   Clear
2:55 PM 77.0 °F 60.8 °F 57% 30.03 in 10.0 mi Calm Calm - N/A   Clear
3:15 PM 77.0 °F 60.8 °F 57% 30.03 in 10.0 mi Calm Calm - N/A   Clear
3:35 PM 77.0 °F 60.8 °F 57% 30.02 in 10.0 mi SSE 3.5 mph - N/A   Scattered Clouds
3:55 PM 77.0 °F 60.8 °F 57% 30.02 in 10.0 mi South 3.5 mph - N/A   Scattered Clouds
4:15 PM 77.0 °F 60.8 °F 57% 30.02 in 10.0 mi SE 3.5 mph - N/A   Clear
4:35 PM 77.0 °F 60.8 °F 57% 30.02 in 10.0 mi East 3.5 mph - N/A   Scattered Clouds
5:15 PM 75.2 °F 60.8 °F 61% 30.02 in 10.0 mi SSE 4.6 mph - N/A   Clear
5:35 PM 73.4 °F 60.8 °F 65% 30.02 in 10.0 mi SSE 3.5 mph - N/A   Clear
5:55 PM 71.6 °F 62.6 °F 73% 30.02 in 10.0 mi SSE 3.5 mph - N/A   Clear
6:15 PM 69.8 °F 64.4 °F 83% 30.02 in 10.0 mi SE 3.5 mph - N/A   Scattered Clouds
6:35 PM 69.8 °F 64.4 °F 83% 30.02 in 10.0 mi South 6.9 mph - N/A   Mostly Cloudy
6:55 PM 71.6 °F 62.6 °F 73% 30.04 in 10.0 mi South 5.8 mph - N/A   Overcast
7:15 PM 69.8 °F 62.6 °F 78% 30.03 in 10.0 mi SSE 5.8 mph - N/A   Overcast
7:35 PM 68.0 °F 62.6 °F 83% 30.05 in 10.0 mi SSE 5.8 mph - N/A   Scattered Clouds
7:55 PM 68.0 °F 62.6 °F 83% 30.05 in 10.0 mi SSE 6.9 mph - N/A   Clear
8:15 PM 66.2 °F 62.6 °F 88% 30.05 in 10.0 mi SSE 6.9 mph - N/A   Clear
8:35 PM 64.4 °F 62.6 °F 94% 30.05 in 10.0 mi SSE 6.9 mph - N/A   Clear
8:55 PM 64.4 °F 62.6 °F 94% 30.05 in 10.0 mi SE 4.6 mph - N/A   Scattered Clouds
9:35 PM 62.6 °F 62.6 °F 100% 30.05 in 10.0 mi SE 3.5 mph - N/A   Scattered Clouds
9:55 PM 62.6 °F 60.8 °F 94% 30.05 in 10.0 mi ESE 3.5 mph - N/A   Clear
10:15 PM 62.6 °F 60.8 °F 94% 30.05 in 10.0 mi Calm Calm - N/A   Clear
10:55 PM 62.6 °F 60.8 °F 94% 30.05 in 10.0 mi East 3.5 mph - N/A   Scattered Clouds
11:15 PM 62.6 °F 60.8 °F 94% 30.05 in 10.0 mi ESE 3.5 mph - N/A   Mostly Cloudy
11:35 PM 62.6 °F 60.8 °F 94% 30.05 in 10.0 mi SE 3.5 mph - N/A   Mostly Cloudy
11:55 PM 62.6 °F 60.8 °F 94% 30.05 in 10.0 mi Calm Calm - N/A   Mostly Cloudy